Kalamazoo, MI

10:59 AM EDT on May 29, 2017 (GMT -0400)
Kalamazoo-Battle Creek International

Weather History for KAZO - July, 2014

Change the Weather History Date:

Tuesday, July 1, 2014

  Actual Average Record
Temperature  
Mean Temperature 74 °F 72 °F  
Max Temperature 83 °F 83 °F 96 °F (1953)
Min Temperature 64 °F 61 °F 43 °F (1950)
Degree Days  
Heating Degree Days 0 0  
Month to date heating degree days 0 0  
Since 1 June heating degree days 19 48  
Since 1 July heating degree days 0 0  
Cooling Degree Days 9 7  
Month to date cooling degree days 9 7  
Year to date cooling degree days 243 193  
Since 1 June cooling degree days 189 152  
Growing Degree Days 23 (Base 50)    
Moisture  
Dew Point 63 °F    
Average Humidity 67    
Maximum Humidity 93    
Minimum Humidity 40    
Precipitation  
Precipitation 1.31 in 0.09 in 1.31 in (2014)
Month to date precipitation 1.31 0.09  
Year to date precipitation 13.60 16.11  
Sea Level Pressure  
Sea Level Pressure 29.73 in    
Wind  
Wind Speed 10 mph (WSW)    
Max Wind Speed 46 mph    
Max Gust Speed 66 mph    
Visibility 9 miles    
Events Fog , Rain , Thunderstorm    
T = Trace of Precipitation, MM = Missing Value Source: NWS Daily Summary

Daily Weather History Graph

Daily Weather History Graph

Search for Another Location

Airport or City:

Trip Planner

Search our weather history database for the weather conditions in past years. The results will help you decide how hot, cold, wet, or windy it might be!

Date:

Astronomy

Jul. 01, 2014 Rise Set
Actual Time 6:09 AM EDT 9:22 PM EDT
Civil Twilight 5:35 AM EDT 9:56 PM EDT
Nautical Twilight 4:50 AM EDT 10:41 PM EDT
Astronomical Twilight 3:57 AM EDT 11:34 PM EDT
Moon 10:21 AM EDT (7/1) 11:40 PM EDT (7/1)
Length of Visible Light 16h 21m
Length of Day
15h 12m
Waxing Crescent, 16% of the Moon is Illuminated
Jul 1
Waxing Crescent
Jul 5
First Quarter
Jul 12
Full
Jul 18
Last Quarter
Jul 26
New

Hourly Weather History & Observations

Time (EDT) Temp. Heat Index Dew Point Humidity Pressure Visibility Wind Dir Wind Speed Gust Speed Precip Events Conditions
12:53 AM 69.1 °F - 66.0 °F 90% 29.70 in 10.0 mi South 8.1 mph - N/A   Mostly Cloudy
1:09 AM 69.1 °F - 66.0 °F 90% 29.68 in 10.0 mi Calm Calm - N/A Thunderstorm Overcast
1:20 AM 68.0 °F - 64.9 °F 90% 29.84 in 1.5 mi WNW 39.1 mph 65.6 mph 0.25 in Rain , Thunderstorm Heavy Thunderstorms and Rain
1:27 AM 66.9 °F - 64.0 °F 90% 29.84 in 0.5 mi WNW 20.7 mph 65.6 mph 0.84 in Fog , Rain , Thunderstorm Heavy Thunderstorms and Rain
1:33 AM 66.0 °F - 64.0 °F 93% 29.79 in 1.0 mi NW 12.7 mph 29.9 mph 1.09 in Rain , Thunderstorm Heavy Thunderstorms and Rain
1:38 AM 66.0 °F - 64.0 °F 93% 29.78 in 2.0 mi NW 13.8 mph - 1.15 in Rain , Thunderstorm Heavy Thunderstorms and Rain
1:48 AM 66.2 °F - 62.6 °F 88% 29.78 in 7.0 mi NW 11.5 mph - 1.20 in Rain , Thunderstorm Thunderstorms and Rain
1:53 AM 66.0 °F - 63.0 °F 90% 29.75 in 10.0 mi NW 11.5 mph - 1.20 in Rain , Thunderstorm Light Thunderstorms and Rain
2:09 AM 66.0 °F - 63.0 °F 90% 29.76 in 8.0 mi NNW 3.5 mph - 0.04 in Rain , Thunderstorm Rain
2:28 AM 66.0 °F - 63.0 °F 90% 29.75 in 10.0 mi SSE 3.5 mph - 0.08 in Rain Rain
2:53 AM 66.0 °F - 64.0 °F 93% 29.68 in 10.0 mi South 6.9 mph - 0.10 in Rain Light Rain
3:53 AM 64.9 °F - 63.0 °F 93% 29.56 in 10.0 mi South 6.9 mph - 0.01 in   Partly Cloudy
4:53 AM 64.9 °F - 62.1 °F 90% 29.65 in 10.0 mi WSW 6.9 mph - N/A   Clear
5:22 AM 64.0 °F - 62.1 °F 93% 29.71 in 10.0 mi WNW 8.1 mph - N/A   Partly Cloudy
5:53 AM 64.9 °F - 62.1 °F 90% 29.70 in 10.0 mi WSW 4.6 mph - N/A   Scattered Clouds
6:53 AM 64.9 °F - 63.0 °F 93% 29.70 in 10.0 mi SW 8.1 mph - N/A   Overcast
7:53 AM 66.9 °F - 64.0 °F 90% 29.70 in 10.0 mi SW 8.1 mph - N/A   Overcast
8:02 AM 66.9 °F - 64.0 °F 90% 29.71 in 10.0 mi SW 9.2 mph - N/A   Overcast
8:06 AM 66.9 °F - 64.0 °F 90% 29.71 in 10.0 mi SW 9.2 mph - N/A   Overcast
8:53 AM 68.0 °F - 64.0 °F 87% 29.72 in 3.0 mi SW 10.4 mph - N/A   Overcast
9:53 AM 71.1 °F - 64.9 °F 81% 29.73 in 10.0 mi WSW 11.5 mph 19.6 mph N/A   Overcast
10:53 AM 73.9 °F - 64.9 °F 73% 29.75 in 10.0 mi West 13.8 mph - N/A   Scattered Clouds
11:53 AM 77.0 °F - 63.0 °F 62% 29.76 in 10.0 mi West 12.7 mph - N/A   Clear
12:53 PM 79.0 °F - 64.0 °F 60% 29.75 in 10.0 mi WSW 17.3 mph 24.2 mph N/A   Partly Cloudy
1:53 PM 81.0 °F 81.6 °F 60.1 °F 49% 29.73 in 10.0 mi WSW 13.8 mph 24.2 mph N/A   Clear
2:53 PM 82.0 °F 82.0 °F 57.9 °F 44% 29.71 in 10.0 mi WSW 20.7 mph 27.6 mph N/A   Clear
3:53 PM 82.9 °F 82.1 °F 55.9 °F 39% 29.72 in 10.0 mi WSW 16.1 mph 25.3 mph N/A   Clear
4:53 PM 81.0 °F 81.9 °F 62.1 °F 52% 29.72 in 10.0 mi WSW 8.1 mph - N/A   Scattered Clouds
5:53 PM 82.0 °F 83.0 °F 62.1 °F 51% 29.73 in 10.0 mi West 12.7 mph - N/A   Scattered Clouds
6:53 PM 78.8 °F - 60.8 °F 54% 29.76 in 10.0 mi West 11.5 mph - N/A   Mostly Cloudy
7:53 PM 78.1 °F - 60.1 °F 54% 29.73 in 10.0 mi West 10.4 mph - N/A   Scattered Clouds
8:53 PM 75.0 °F - 60.1 °F 60% 29.74 in 10.0 mi SW 6.9 mph - N/A   Clear
9:53 PM 73.0 °F - 61.0 °F 66% 29.76 in 10.0 mi SW 6.9 mph - N/A   Clear
10:53 PM 71.1 °F - 61.0 °F 70% 29.76 in 10.0 mi SW 5.8 mph - N/A   Clear
11:53 PM 68.0 °F - 62.1 °F 81% 29.76 in 10.0 mi SW 6.9 mph - N/A   Clear